Weather History for PATL - May, 2012

Change the Weather History Date:

Thursday, May 31, 2012

  Actual Average Record
Temperature  
Mean Temperature 54 °F -  
Max Temperature 64 °F 60 °F 78 °F (2013)
Min Temperature 44 °F 43 °F 37 °F (2014)
Degree Days  
Heating Degree Days 11    
Growing Degree Days 4 (Base 50)    
Moisture  
Dew Point 34 °F    
Average Humidity 49    
Maximum Humidity 87    
Minimum Humidity 23    
Precipitation  
Precipitation 0.00 in - - ()
Sea Level Pressure  
Sea Level Pressure 29.50 in    
Wind  
Wind Speed 2 mph (NNE)    
Max Wind Speed 10 mph    
Max Gust Speed 16 mph    
Visibility 10 miles    
Events      
Averages and records for this station are not official NWS values.
T = Trace of Precipitation, MM = Missing Value Source: NWS Daily Summary

Daily Weather History Graph

Daily Weather History Graph

Search for Another Location

Airport or City:

Trip Planner

Search our weather history database for the weather conditions in past years. The results will help you decide how hot, cold, wet, or windy it might be!

Date:

Astronomy

May. 31, 2012 Rise Set
Actual Time 4:39 AM AKDT 12:05 AM AKDT
Civil Twilight 2:54 AM AKDT 1:49 AM AKDT
Nautical Twilight Sun does not rise Sun does not rise
Astronomical Twilight Sun does not rise Sun does not rise
Moon 6:53 PM AKDT (5/31) 3:16 AM AKDT (5/31)
Length of Visible Light 22h 55m
Length of Day
19h 26m
Waxing Gibbous, 81% of the Moon is Illuminated
May 31
Waxing Gibbous
Jun 4
Full
Jun 11
Last Quarter
Jun 19
New
Jun 26
First Quarter

Hourly Weather History & Observations

Time (AKDT) Temp. Dew Point Humidity Pressure Visibility Wind Dir Wind Speed Gust Speed Precip Events Conditions
12:55 AM 53.1 °F 32.2 °F 45% 29.42 in 10.0 mi Calm Calm - N/A   Clear
1:55 AM 50.0 °F 33.1 °F 52% 29.43 in 10.0 mi Calm Calm - N/A   Clear
2:55 AM 50.0 °F 35.1 °F 57% 29.44 in 10.0 mi Calm Calm - N/A   Clear
3:55 AM 48.0 °F 36.1 °F 63% 29.44 in 10.0 mi Calm Calm - N/A   Clear
4:55 AM 46.9 °F 36.1 °F 66% 29.44 in 10.0 mi Calm Calm - N/A   Clear
5:55 AM 44.1 °F 36.1 °F 74% 29.45 in 10.0 mi Calm Calm - N/A   Clear
6:55 AM 46.0 °F 36.1 °F 68% 29.46 in 10.0 mi Calm Calm - N/A   Clear
7:55 AM 48.0 °F 36.1 °F 63% 29.47 in 10.0 mi Calm Calm - N/A   Clear
8:55 AM 51.1 °F 37.0 °F 59% 29.48 in 10.0 mi Calm Calm - N/A   Clear
9:55 AM 55.0 °F 37.0 °F 51% 29.49 in 10.0 mi ENE 5.8 mph - N/A   Clear
10:55 AM 57.9 °F 33.1 °F 39% 29.50 in 10.0 mi ENE 5.8 mph - N/A   Scattered Clouds
11:55 AM 59.0 °F 30.0 °F 33% 29.51 in 10.0 mi Calm Calm - N/A   Clear
12:55 PM 62.1 °F 29.1 °F 29% 29.51 in 10.0 mi Calm Calm - N/A   Clear
1:55 PM 64.9 °F 31.1 °F 28% 29.52 in 10.0 mi East 6.9 mph - N/A   Mostly Cloudy
2:55 PM 64.9 °F 30.0 °F 27% 29.52 in 10.0 mi NW 5.8 mph - N/A   Clear
4:55 PM 64.0 °F 25.2 °F 23% 29.51 in 10.0 mi NNE 3.5 mph - N/A   Mostly Cloudy
5:55 PM 64.9 °F 27.1 °F 24% 29.52 in 10.0 mi NNE 6.9 mph - N/A   Clear
6:55 PM 64.0 °F 26.1 °F 24% 29.52 in 10.0 mi Calm Calm - N/A   Scattered Clouds
7:55 PM 64.0 °F 32.2 °F 30% 29.53 in 10.0 mi West 4.6 mph - N/A   Overcast
8:55 PM 59.0 °F 36.1 °F 42% - 10.0 mi WSW 9.2 mph 16.1 mph N/A   Overcast
9:55 PM 52.0 °F 44.1 °F 74% 29.56 in 10.0 mi WSW 10.4 mph - N/A   Overcast
10:55 PM 53.1 °F 42.1 °F 66% 29.60 in 10.0 mi North 4.6 mph - N/A   Overcast
11:55 PM 48.9 °F 45.1 °F 87% 29.62 in 7.0 mi SE 3.5 mph - N/A   Overcast